Altus, OK

5:25 PM CDT on April 28, 2017 (GMT -0500)
Altus Municipal

Weather History for KAXS - January, 2012

Change the Weather History Date:

Wednesday, January 25, 2012

  Actual Average (KLTS) Record (KLTS)
Temperature  
Mean Temperature 46 °F -  
Max Temperature 51 °F 50 °F 71 °F (2005)
Min Temperature 41 °F 27 °F 17 °F (2002)
Degree Days  
Heating Degree Days 19    
Moisture  
Dew Point 41 °F    
Average Humidity 81    
Maximum Humidity 93    
Minimum Humidity 58    
Precipitation  
Precipitation 0.00 in - - ()
Sea Level Pressure  
Sea Level Pressure 30.03 in    
Wind  
Wind Speed 15 mph (North)    
Max Wind Speed 26 mph    
Max Gust Speed 32 mph    
Visibility 9 miles    
Events Rain    
Averages and records for this station are not official NWS values.
T = Trace of Precipitation, MM = Missing Value Source: NWS Daily Summary

Daily Weather History Graph

Daily Weather History Graph

Search for Another Location

Airport or City:

Trip Planner

Search our weather history database for the weather conditions in past years. The results will help you decide how hot, cold, wet, or windy it might be!

Date:

Astronomy

Jan. 25, 2012 Rise Set
Actual Time 7:40 AM CST 5:59 PM CST
Civil Twilight 7:13 AM CST 6:26 PM CST
Nautical Twilight 6:42 AM CST 6:56 PM CST
Astronomical Twilight 6:13 AM CST 7:26 PM CST
Moon 8:48 AM CST (1/25) 8:44 PM CST (1/25)
Length of Visible Light 11h 12m
Length of Day
10h 18m
Waxing Crescent, 7% of the Moon is Illuminated
Jan 25
Waxing Crescent
Jan 30
First Quarter
Feb 7
Full
Feb 14
Last Quarter
Feb 21
New

Hourly Weather History & Observations

Time (CST) Temp. Windchill Dew Point Humidity Pressure Visibility Wind Dir Wind Speed Gust Speed Precip Events Conditions
12:15 AM 46.4 °F 41.1 °F 44.6 °F 93% 30.07 in 2.5 mi NNE 11.5 mph - N/A Rain Rain
12:35 AM 46.4 °F 40.1 °F 44.6 °F 93% 30.06 in 4.0 mi NNE 15.0 mph - N/A   Overcast
12:55 AM 46.4 °F 40.7 °F 44.6 °F 93% 30.06 in 10.0 mi NNE 12.7 mph - N/A   Mostly Cloudy
1:15 AM 46.4 °F 39.5 °F 42.8 °F 87% 30.03 in 10.0 mi NE 17.3 mph - N/A   Mostly Cloudy
1:35 AM 46.4 °F 39.2 °F 42.8 °F 87% 30.01 in 10.0 mi ENE 18.4 mph 25.3 mph N/A   Scattered Clouds
1:55 AM 46.4 °F 40.1 °F 42.8 °F 87% 30.03 in 10.0 mi NNE 15.0 mph - N/A   Mostly Cloudy
2:15 AM 46.4 °F 40.7 °F 42.8 °F 87% 30.04 in 10.0 mi NNE 12.7 mph - N/A   Overcast
2:35 AM 46.4 °F 40.1 °F 42.8 °F 87% 30.04 in 10.0 mi NNE 15.0 mph 18.4 mph N/A   Overcast
2:55 AM 44.6 °F 38.1 °F 42.8 °F 93% 30.02 in 10.0 mi NNE 13.8 mph - N/A   Overcast
3:15 AM 46.4 °F 39.8 °F 42.8 °F 87% 30.01 in 10.0 mi NNE 16.1 mph - N/A   Overcast
3:35 AM 46.4 °F 40.7 °F 42.8 °F 87% 30.05 in 10.0 mi North 12.7 mph - N/A   Overcast
3:55 AM 46.4 °F 41.1 °F 42.8 °F 87% 30.05 in 10.0 mi North 11.5 mph - N/A   Overcast
4:15 AM 46.4 °F 41.5 °F 42.8 °F 87% 30.05 in 10.0 mi North 10.4 mph - N/A   Overcast
4:55 AM 44.6 °F 36.9 °F 42.8 °F 93% 30.02 in 10.0 mi North 18.4 mph - N/A   Overcast
5:15 AM 44.6 °F 36.6 °F 42.8 °F 93% 30.02 in 10.0 mi North 19.6 mph 25.3 mph N/A   Overcast
5:35 AM 44.6 °F 37.4 °F 42.8 °F 93% 30.01 in 10.0 mi North 16.1 mph - N/A   Overcast
5:55 AM 46.4 °F 40.4 °F 42.8 °F 87% 30.04 in 10.0 mi NNE 13.8 mph - N/A   Overcast
6:15 AM 46.4 °F 40.1 °F 42.8 °F 87% 30.05 in 10.0 mi NNE 15.0 mph 20.7 mph N/A   Overcast
6:35 AM 46.4 °F 41.1 °F 42.8 °F 87% 30.05 in 10.0 mi NNE 11.5 mph - N/A   Overcast
6:55 AM 46.4 °F 41.5 °F 42.8 °F 87% 30.05 in 10.0 mi NNE 10.4 mph - N/A   Overcast
7:15 AM 46.4 °F 40.7 °F 42.8 °F 87% 30.06 in 10.0 mi NNE 12.7 mph - N/A   Overcast
7:35 AM 46.4 °F 39.5 °F 42.8 °F 87% 30.05 in 10.0 mi North 17.3 mph - N/A   Overcast
7:55 AM 46.4 °F 40.7 °F 42.8 °F 87% 30.06 in 5.0 mi NNE 12.7 mph - N/A   Overcast
8:15 AM 46.4 °F 39.2 °F 42.8 °F 87% 30.07 in 3.0 mi North 18.4 mph 23.0 mph N/A   Overcast
8:35 AM 44.6 °F 37.4 °F 41.0 °F 87% 30.09 in 2.5 mi North 16.1 mph - N/A   Drizzle
8:55 AM 42.8 °F 34.5 °F 41.0 °F 93% 30.10 in 3.0 mi North 18.4 mph 24.2 mph N/A   Light Drizzle
9:15 AM 42.8 °F 34.0 °F 39.2 °F 87% 30.09 in 3.0 mi North 20.7 mph 24.2 mph N/A   Overcast
9:55 AM 41.0 °F 31.1 °F 37.4 °F 87% 30.07 in 3.0 mi North 23.0 mph 28.8 mph N/A   Overcast
10:15 AM 41.0 °F 31.1 °F 37.4 °F 87% 30.08 in 10.0 mi North 23.0 mph 26.5 mph N/A   Overcast
10:35 AM 41.0 °F 30.9 °F 37.4 °F 87% 30.07 in 10.0 mi North 24.2 mph 32.2 mph N/A   Overcast
10:55 AM 42.8 °F 33.1 °F 37.4 °F 81% 30.06 in 10.0 mi North 25.3 mph - N/A   Overcast
11:35 AM 42.8 °F 33.3 °F 37.4 °F 81% 30.05 in 10.0 mi North 24.2 mph 31.1 mph N/A   Mostly Cloudy
11:55 AM 42.8 °F 33.1 °F 39.2 °F 87% 30.02 in 10.0 mi North 25.3 mph 28.8 mph N/A   Mostly Cloudy
12:15 PM 44.6 °F 35.3 °F 39.2 °F 81% 30.02 in 10.0 mi North 26.5 mph - N/A   Scattered Clouds
12:35 PM 44.6 °F 35.9 °F 39.2 °F 81% 30.04 in 10.0 mi North 23.0 mph 28.8 mph N/A   Overcast
12:55 PM 46.4 °F 38.5 °F 41.0 °F 81% 30.02 in 10.0 mi North 21.9 mph 27.6 mph N/A   Overcast
1:15 PM 46.4 °F 38.7 °F 39.2 °F 76% 30.01 in 10.0 mi North 20.7 mph 26.5 mph N/A   Mostly Cloudy
1:35 PM 46.4 °F 39.8 °F 39.2 °F 76% 30.02 in 10.0 mi North 16.1 mph 21.9 mph N/A   Mostly Cloudy
1:55 PM 48.2 °F - 41.0 °F 76% 30.02 in 10.0 mi North 15.0 mph - N/A   Mostly Cloudy
2:15 PM 50.0 °F - 41.0 °F 71% 30.01 in 10.0 mi North 17.3 mph - N/A   Scattered Clouds
2:35 PM 48.2 °F - 39.2 °F 71% 30.01 in 10.0 mi NNW 13.8 mph - N/A   Mostly Cloudy
2:55 PM 50.0 °F - 39.2 °F 66% 30.01 in 10.0 mi North 11.5 mph - N/A   Overcast
3:15 PM 50.0 °F - 39.2 °F 66% 30.00 in 10.0 mi North 16.1 mph - N/A   Mostly Cloudy
3:35 PM 50.0 °F - 37.4 °F 62% 29.99 in 10.0 mi North 15.0 mph - N/A   Mostly Cloudy
3:55 PM 51.8 °F - 37.4 °F 58% 29.99 in 10.0 mi North 11.5 mph - N/A   Scattered Clouds
4:15 PM 51.8 °F - 37.4 °F 58% 29.97 in 10.0 mi North 17.3 mph 20.7 mph N/A   Clear
4:35 PM 51.8 °F - 37.4 °F 58% 29.96 in 10.0 mi North 16.1 mph - N/A   Clear
4:55 PM 51.8 °F - 37.4 °F 58% 29.95 in 10.0 mi North 17.3 mph - N/A   Clear
5:15 PM 51.8 °F - 37.4 °F 58% 29.94 in 10.0 mi North 15.0 mph - N/A   Clear
5:35 PM 50.0 °F - 37.4 °F 62% 29.94 in 10.0 mi North 11.5 mph - N/A   Clear
5:55 PM 50.0 °F - 37.4 °F 62% 29.95 in 10.0 mi North 9.2 mph - N/A   Clear
6:15 PM 46.4 °F 42.4 °F 37.4 °F 71% 29.96 in 10.0 mi North 8.1 mph - N/A   Clear
6:35 PM 44.6 °F 39.7 °F 37.4 °F 76% 29.97 in 10.0 mi North 9.2 mph - N/A   Clear
6:55 PM 44.6 °F 40.7 °F 37.4 °F 76% 29.99 in 10.0 mi North 6.9 mph - N/A   Clear
7:15 PM 44.6 °F 41.4 °F 35.6 °F 71% 30.00 in 10.0 mi North 5.8 mph - N/A   Clear
7:35 PM 41.0 °F 37.1 °F 35.6 °F 81% 30.00 in 10.0 mi North 5.8 mph - N/A   Clear
7:55 PM 41.0 °F 37.1 °F 35.6 °F 81% 30.00 in 10.0 mi North 5.8 mph - N/A   Clear
8:15 PM 39.2 °F 35.9 °F 33.8 °F 81% 30.00 in 10.0 mi North 4.6 mph - N/A   Clear
8:35 PM 39.2 °F 35.0 °F 35.6 °F 87% 30.00 in 10.0 mi NNW 5.8 mph - N/A   Clear
9:15 PM 37.4 °F 32.1 °F 33.8 °F 87% 29.98 in 10.0 mi NNW 6.9 mph - N/A   Clear
9:35 PM 37.4 °F 32.8 °F 33.8 °F 87% 29.97 in 10.0 mi NNW 5.8 mph - N/A   Clear
9:55 PM 37.4 °F 34.9 °F 33.8 °F 87% 29.96 in 10.0 mi North 3.5 mph - N/A   Clear
10:15 PM 37.4 °F 32.8 °F 33.8 °F 87% 29.96 in 10.0 mi NNW 5.8 mph - N/A   Clear
10:35 PM 37.4 °F 30.8 °F 33.8 °F 87% 29.96 in 10.0 mi NNW 9.2 mph - N/A   Clear
10:55 PM 37.4 °F 30.8 °F 33.8 °F 87% 29.97 in 10.0 mi NNW 9.2 mph - N/A   Clear
11:15 PM 37.4 °F 30.8 °F 33.8 °F 87% 29.97 in 10.0 mi NNW 9.2 mph - N/A   Clear
11:35 PM 37.4 °F 32.8 °F 33.8 °F 87% 29.97 in 10.0 mi North 5.8 mph - N/A   Clear
11:55 PM 35.6 °F 30.7 °F 33.8 °F 93% 29.96 in 10.0 mi North 5.8 mph - N/A   Clear